Regional Weather Roundup
Issued by NWS Sterling, VA

Home | Current Version | Previous Version | Graphics & Text | Print | Product List | Glossary On
Versions: 1 2 3 4 5 6 7 8 9 10 11 12 13 14 15 16 17 18 19 20 21 22 23 24 25 26 27
000
ASUS41 KLWX 160310
RWRLWX

REGIONAL WEATHER ROUNDUP
NATIONAL WEATHER SERVICE BALTIMORE MD/WASHINGTON DC
1100 PM EDT TUE APR 15 2014

Note: "FAIR" indicates few or no clouds below 12,000 feet
with no significant weather and/or obstructions to visibility.
 TC=TEMPERATURE CELSIUS

 * =Non NWS site. Station does not report precipitation (e.g. rain,
    snow, etc.), thunder, or fog.

DCZ001-MDZ009-015-VAZ040>042-051-053>054-160400-
WASHINGTON METRO

CITY           SKY/WX    TMP DP  RH WIND       PRES   REMARKS
WASHINGTON NAT CLOUDY    40  29  64 N21G35    30.02R
DULLES         CLOUDY    36  24  62 N20G30    30.02R WCI  25
ANDREWS AFB    CLOUDY    36  34  91 NW9       30.00R
FT BELVOIR     CLOUDY    39  27  61 NW15G26   30.05R
QUANTICO       CLOUDY    40  30  67 N13       30.06R
COLLEGE PARK*  CLOUDY    37  36  93 NW9       30.03R
LEESBURG*      CLOUDY    37  27  65 N29G35    30.04R WCI  25
MANASSAS*      CLOUDY    37  30  75 N17       30.06R WCI  28
GAITHERSBURG*  CLOUDY    36  23  60 NW12G24   30.05R WCI  27

$$

MDZ006>007-011-014-160400-
BALTIMORE METRO

CITY           SKY/WX    TMP DP  RH WIND       PRES   REMARKS
BWI AIRPORT    CLOUDY    37  33  85 NW12G18   30.00R
MD SCIENCE CTR   N/A     39  31  72 MISG      30.01R
MARTIN STATE   CLOUDY    37  36  93 W7        30.01R
ANNAPOLIS      CLOUDY    40  39  97 NW15      29.99F
FORT MEADE*    CLOUDY    36  34  93 W5        30.04R

$$

MDZ012-015-019>023-160400-
MARYLAND EASTERN SHORE

CITY           SKY/WX    TMP DP  RH WIND       PRES   REMARKS
OCEAN CITY     LGT RAIN  43  40  89 N22G31    29.88R
SALISBURY      RAIN      43  38  82 N17G29    29.90R
BAY BRIDGE AP* CLOUDY    39  34  81 NW18G28   29.99S
CAMBRIDGE*     CLOUDY    37  34  87 NW21G31   29.96R WCI  27
EASTON*        LGT SNOW  38  38 100 N18G30    30.00  WCI  28

$$

MDZ017>025-160400-
SOUTHERN MARYLAND

CITY           SKY/WX    TMP DP  RH WIND       PRES   REMARKS
PATUXENT RIVER MIX PCPN  36  33  89 N18G26    29.99R WCI  26
ST INIGOES     HVY RAIN  36 N/A N/A NW14G22   29.98R WCI  27
LEONARDTOWN*   CLOUDY    34  32  93 N7        30.02R

$$

MDZ003>005-160400-
NORTH CENTRAL MARYLAND

CITY           SKY/WX    TMP DP  RH WIND       PRES   REMARKS
FREDERICK*     CLOUDY    37  28  70 NW12G25   30.07R
HAGERSTOWN APT CLOUDY    34  20  56 NW26G35   30.04R WCI  21
WESTMINSTER*   CLOUDY    36  25  64 NW15G25   29.99R WCI  26

$$

MDZ501>502-160400-
WESTERN MARYLAND

CITY           SKY/WX    TMP DP  RH WIND       PRES   REMARKS
OAKLAND*       CLOUDY    21  21 100 NW15G25   30.01R WCI   8
CUMBERLAND*    MOCLDY    34  18  51 NW12G25   30.13R WCI  25

$$

VAZ025>031-160400-
SHENANDOAH VALLEY

CITY           SKY/WX    TMP DP  RH WIND       PRES   REMARKS
WINCHESTER*    CLOUDY    36  21  55 NW21G32   30.05R WCI  24
STAUNTON*      PTCLDY    34  20  57 NW10      30.05R WCI  26

$$

WVZ021-048>050-054>055-160400-
EASTERN WEST VIRGINIA PANHANDLE

CITY           SKY/WX    TMP DP  RH WIND       PRES   REMARKS
MARTINSBURG    CLOUDY    35  18  49 NW15G25   30.06R WCI  25
PETERSBURG*    CLOUDY    37  24  58 NW16G23   30.12R WCI  28

$$

VAZ036>039-050-160400-
CENTRAL FOOTHILLS

CITY           SKY/WX    TMP DP  RH WIND       PRES   REMARKS
CHARLOTTESVILL MOCLDY    39  24  55 N9        30.02R
CULPEPER*      CLOUDY    41  25  52 N16G22    30.06R

$$

VAZ055>057-160400-
NORTH AND CENTRAL PIEDMONT

CITY           SKY/WX    TMP DP  RH WIND       PRES   REMARKS
FREDERICKSBRG* CLOUDY    41  32  70 N9G20     30.04R
STAFFORD*      CLOUDY    39  32  74 NW16G25   30.08R

$$

NCZ024-NYZ072-PAZ021-071-VAZ022-071-160400-
OTHER REGIONAL OBSERVATIONS

CITY           SKY/WX    TMP DP  RH WIND       PRES   REMARKS
NEW YORK CITY  LGT SNOW  34  31  88 VRB6G17   29.91R FOG
PHILADELPHIA   LGT RAIN  39  33  79 N20G28    29.94R
PITTSBURGH     MOCLDY    29  20  69 NW10      30.16R WCI  20
ROANOKE        PTCLDY    34  19  54 N22G28    30.06R WCI  22
RICHMOND       LGT RAIN  39  34  82 N16G24    29.98R
RALEIGH        PTCLDY    42  33  70 VRB7G22   29.98R

$$

ANZ530>537-160400-
MARINE OBSERVATIONS

STATION/POSITION TIME  TEMP    WIND        PRES
                       AIR SEA DIR/SP/G
                 (UTC) (F)     (DEG/KT/KT) (MB)
THOMAS PT LIGHT  0300   39 51  330/ 17/ 20 1015.7R
BALT KEY BRIDGE  0300   38     320/ 12/ 15 1015.9R
COVE POINT       0300   36     350/ 33/ 37 1014.6R
LEWISETTA        0300   39 54  350/ 19/ 25 1015.5R
SOLOMONS ISLAND  0300      55                N/A
PINEY POINT      0300          360/ 19/ 21   N/A

$$




USA.gov is the U.S. government's official web portal to all federal, state and local government web resources and services.